Погода в Чианграе

Таиланд     19°54′40″N   99°50′05″E
В апреле 2022 года жителям России запретили посещать сайт meteo.paraplan.net по решению Генеральной прокуратуры. Аудитория сайта уменьшилась в 10 раз. Владельцы сайта не видят смысла в поддержке погодного сервера в таких условиях. Сайт будет закрыт в октябре.
темп.,
°C
ветер,
м/с
пор.,
м/с
влажн.,
%
обл.,
%
осадки,
мм/ч
давл.,
гПа
погр.,
м
25 сентября, вс
вс2501:00+20ссз119575 0.4 100912
04:00+20ссз119563 0.0 100817
07:00+21ссз119446 0.0 100950
10:00+27св25635 0.1 10111018
13:00+29в245436 0.1 10081584
16:00+27ю127443 0.1 1005191
19:00+22юз119466 1.1 100819
22:00+21з11955 0.2 101114
26 сентября, пн
пн2601:00+20з119779 0.2 101012
04:00+20ссв009857 0.4 100914
07:00+21с0098100 0.7 101144
10:00+22в119669 0.4 1012183
13:00+28вюв126410 1.0 10081140
16:00+27ю12757 0.8 1006779
19:00+22зюз11935 4.2 100812
22:00+21з11955 1.2 101112
27 сентября, вт
вт2701:00+20зсз11965 1.2 100917
04:00+19сз119777 0.0 100911
07:00+20сз119692 0.0 101034
10:00+27юв126879 0.0 1010755
13:00+29юв22575 0.3 10071235
16:00+29юв11614 0.0 1004958
19:00+24з11830 0.0 100613
22:00+22з11820 0.0 100820
28 сентября, ср
ср2801:00+21зсз118716 0.0 100725
04:00+20зсз119380 0.0 100619
07:00+21зсз119098 0.0 100752
10:00+28в116424 0.0 1007723
13:00+31в235342 0.0 10031402
16:00+31ю02549 0.0 1000621
19:00+25зсз2275100 0.0 100226
22:00+25зсз1173100 0.0 100421
29 сентября, чт
чт2901:00+23сз2178100 0.0 100332
04:00+23сз117776 0.0 100333
07:00+23сз1181100 0.0 100430
10:00+27всв2267100 0.0 1005401
13:00+25ссв1281100 0.1 100389
16:00+24с1180100 0.0 100213
19:00+23ссз1176100 0.0 100412
22:00+22ссз228689 0.1 100749